x

West Sea Otter (46204) Wave Buoy

6:00 - Fri 27th May 2016 All times are PDT. -7 hours from GMT.

  • Sig Wave height 3.9ft
  • Peak Period 8s
  • Wind
    13mph, 18mph gusts
  • Sea Temp 54°f
  • Air Temp 51°f
  • Sea Pressure 1019.4mb
  • West Sea Otter
  • West Sea Otter

More Historic Weather Station data

Upgrade to MSW Pro to gain access to the past 30 days of data for over 8000 Wavebouys and Weather Stations around the globe.

Join Pro

Comparision Forecast

View Surf forecast
   
ven. 05/27 6:00 4ft 8s 13 18 mph 1019.4mb 54f 51f
5:00 4ft 8s 13 18 mph 1019.4mb 54f 50f
4:00 4ft 6s 13 16 mph 1019.7mb 54f 51f
3:00 4.5ft 6s 13 18 mph 1020.3mb 54f 51f
2:00 5ft 6s 16 18 mph 1020.8mb 54f 51f
1:00 4.5ft 7s 18 20 mph 1020.8mb 54f 51f
12:00 4.5ft 7s 16 18 mph 1021.3mb 54f 51f
jeu. 05/26 11:00 4.5ft 6s 16 18 mph 1021.7mb 54f 51f
10:00 4.5ft 6s 16 18 mph 1021.7mb 54f 51f
9:00 4ft 6s 16 18 mph 1021.6mb 54f 52f
8:00 3.5ft 6s 16 18 mph 1021.7mb 55f 52f
7:00 3.5ft 6s 11 13 mph 1021.9mb 55f 53f
6:00 3.5ft 6s 13 16 mph 1022mb 55f 52f
5:00 3.5ft 6s 13 16 mph 1022.4mb 55f 52f
4:00 3.5ft 6s 9 11 mph 1022.6mb 55f 52f
3:00 3.5ft 6s 13 16 mph 1022.8mb 54f 52f
2:00 3.5ft 6s 11 13 mph 1023mb 54f 52f
1:00 3.5ft 6s 11 13 mph 1023.3mb 54f 52f
12:00 3.5ft 6s 11 16 mph 1023.3mb 54f 52f
11:00 3.5ft 6s 11 13 mph 1023.4mb 54f 51f
10:00 3.5ft 6s 9 11 mph 1023.4mb 54f 52f
9:00 3.5ft 10s 11 13 mph 1023.3mb 54f 51f
8:00 3.5ft 6s 13 16 mph 1023mb 54f 51f
7:00 3.5ft 6s 11 13 mph 1022.9mb 54f 52f
6:00 3.5ft 6s 11 13 mph 1022.9mb 54f 52f
5:00 3.5ft 7s 11 13 mph 1022.8mb 54f 52f
4:00 3.5ft 6s 9 11 mph 1022.9mb 54f 52f
3:00 4ft 6s 11 13 mph 1023.2mb 54f 52f
2:00 4.5ft 6s 13 18 mph 1023.4mb 54f 51f
1:00 4ft 5s 16 18 mph 1023.5mb 54f 51f
12:00 4ft 8s 18 20 mph 1023.8mb 54f 51f
mer. 05/25 11:00 3.5ft 7s 16 20 mph 1023.9mb 54f 52f
10:00 3.5ft 8s 9 11 mph 1024.2mb 54f 52f
9:00 3.5ft 8s 9
mph
1024.2mb 54f 52f
8:00 3ft 11s 9 11 mph 1024.3mb 54f 52f
7:00 3ft 5s 11 13 mph 1024.4mb 54f 52f
6:00 3ft 8s 9 11 mph 1024.2mb 54f 52f
5:00 3.5ft 5s 9
mph
1024.4mb 54f 52f
4:00 3.5ft 8s 11 13 mph 1024.2mb 54f 52f
3:00 4ft 5s 11 13 mph 1024.4mb 54f 51f
2:00 4ft 6s 11 13 mph 1024.4mb 54f 52f
1:00 4.5ft 6s 11 16 mph 1024.3mb 54f 52f
12:00 4ft 5s 11 13 mph 1024mb 54f 52f
11:00 4.5ft 5s 13 16 mph 1023.6mb 54f 52f
10:00 4.5ft 5s 13 16 mph 1023.2mb 54f 52f
9:00 4.5ft 5s 13 16 mph 1022.7mb 54f 52f
8:00 4.5ft 5s 16 18 mph 1022.2mb 53f 52f
7:00 4.5ft 6s 16 20 mph 1021.7mb 53f 52f
6:00 4.5ft 8s 18 20 mph 1021.5mb 53f 52f
5:00 4.5ft 7s 18 20 mph 1021.1mb 53f 52f
4:00 4ft 8s 18 20 mph 1020.7mb 53f 52f
3:00 4.5ft 8s 16 20 mph 1020.6mb 53f 52f
2:00 4.5ft 8s 13 18 mph 1020.3mb 53f 53f
1:00 4.5ft 8s 13 16 mph 1020.1mb 53f 52f
12:00 4.5ft 7s 13 16 mph 1020mb 53f 52f
mar. 05/24 11:00 4.5ft 8s 16 18 mph 1019.9mb 53f 52f
10:00 4.5ft 8s 16 20 mph 1019.6mb 54f 52f
9:00 4ft 8s 16 18 mph 1019.4mb 54f 53f
8:00 4ft 9s 13 16 mph 1019.2mb 54f 53f
7:00 4.5ft 9s 13 16 mph 1019.1mb 54f 53f
6:00 5ft 9s 13 16 mph 1019.1mb 54f 53f
5:00 5ft 9s 13 16 mph 1019.1mb 54f 53f
4:00 5ft 10s 13 16 mph 1019mb 53f 52f
3:00 5.5ft 5s 13 18 mph 1018.9mb 53f 52f
2:00 5.5ft 5s 18 20 mph 1018.8mb 53f 52f
1:00 5.5ft 9s 16 18 mph 1018.7mb 53f 50f
12:00 5.5ft 9s 18 22 mph 1018.1mb 53f 51f
11:00 5ft 9s 16 18 mph 1017.9mb 53f 51f
10:00 5ft 9s 16 20 mph 1017.6mb 53f 52f
9:00 4.5ft 10s 16 20 mph 1017.4mb 53f 52f
8:00 4.5ft 10s 16 20 mph 1017.1mb 54f 52f
7:00 5ft 10s 18 22 mph 1016.8mb 54f 53f
6:00 5ft 10s 16 18 mph 1016.6mb 53f 52f
5:00 5ft 9s 16 18 mph 1016.5mb 53f 52f
4:00 5.5ft 9s 18 20 mph 1016.2mb 53f 52f
3:00 6ft 10s 20 22 mph 1016.1mb 53f 52f
2:00 6ft 9s 18 20 mph 1015.9mb 53f 53f
1:00 6ft 9s 18 22 mph 1016mb 53f 53f
12:00 6ft 10s 16 18 mph 1016.2mb 53f 52f
lun. 05/23 11:00 5.5ft 9s 13 16 mph 1016.4mb 53f 53f
10:00 5ft 8s 13 16 mph 1016.3mb 54f 53f
9:00 5ft 9s 13
mph
1015.9mb 54f 53f
8:00 5.5ft 10s 11 13 mph 1015.9mb 54f 53f
7:00 5.5ft 10s 11 13 mph 1015.9mb 54f 53f
6:00 5.5ft 10s 13 16 mph 1015.6mb 54f 53f
5:00 6.5ft 10s 13 18 mph 1015.7mb 54f 53f
4:00 7ft 10s 16 20 mph 1015.9mb 54f 53f
3:00 6.5ft 8s 16 18 mph 1015.8mb 54f 53f